Regional Weather Roundup
Issued by NWS

Home | Current Version | Previous Version | Graphics & Text | Print | Product List | Glossary On
Versions: 1 2 3 4 5 6 7 8 9 10 11 12 13 14 15 16 17 18 19 20 21 22 23 24 25 26 27 28 29 30 31 32 33 34 35 36 37 38 39 40 41 42 43 44 45 46 47 48 49 50
733
ASUS43 KLOT 250708
RWRIL

ILLINOIS REGIONAL WEATHER ROUNDUP
NATIONAL WEATHER SERVICE CHICAGO/ROMEOVILLE IL
100 AM CST SAT NOV 25 2017

NOTE: "FAIR" INDICATES FEW OR NO CLOUDS BELOW 12,000 FEET WITH NO
SIGNIFICANT WEATHER AND/OR OBSTRUCTIONS TO VISIBILITY.

* THESE STATIONS ARE NOT UNDER NWS QUALITY CONTROL. THEY ALSO MAY NOT
  REPORT WEATHER SUCH AS PRECIPITATION OR FOG.

ILZ001-002-007-009-015-016-024-250800-
NORTHWEST ILLINOIS

CITY           SKY/WX    TMP DP  RH WIND       PRES   REMARKS
MOLINE         CLEAR     47  36  65 NW18G29   29.78R
STERLING*      CLEAR     47  41  80 NW8       29.74R
SAVANNA*       CLEAR     46  39  76 NW13      29.76R
$$

ILZ003-004-008-010-011-017-018-250800-
NORTH CENTRAL ILLINOIS

CITY           SKY/WX    TMP DP  RH WIND       PRES   REMARKS
ROCKFORD       PTCLDY    49  39  68 NW13G22   29.72R
FREEPORT*      CLEAR     46  39  77 W8G16     29.74R
ROCHELLE*      CLEAR     48  41  77 NW12      29.70R
DE KALB*       CLEAR     48  42  79 NW16G22   29.69R
PERU*          CLEAR     47  42  82 W9        29.73R
$$

ILZ005-006-012>014-019>023-250800-
NORTHEAST ILLINOIS

CITY           SKY/WX    TMP DP  RH WIND       PRES   REMARKS
CHICAGO-OHARE  PTCLDY    53  42  66 NW13G22   29.64R
CHICAGO-MIDWAY PTCLDY    54  43  66 NW12      29.64R
AURORA         CLEAR     47  42  83 W12       29.68R
LANSING*       CLOUDY    44  40  86 W6        29.65R
JOLIET*        CLEAR     51  43  74 W7        29.67R
WAUKEGAN       PTCLDY    52  42  69 NW14G23   29.64R
DUPAGE AIRPORT CLEAR     50  43  77 W10       29.66R
KANKAKEE*      CLOUDY    43  38  84 W8        29.67R
WHEELING       PTCLDY    54  44  69 NW16G23   29.65R
MORRIS*        CLEAR     46  41  83 W10       29.68R
ROMEOVILLE*    CLEAR     50  43  76 NW14      29.66R
NORTHERLY ISL    N/A     52  40  63 NW6         N/A
$$

LMZ740>746-250800-
SOUTHERN LAKE MICHIGAN

STATION/POSITION SKY/WX   TEMP    WIND        PRES    VSBY  WAVE
                          AIR SEA DIR/SP/G                  HT/PER
                          (F)     (DEG/KT/KT) (MB)    (MI)  (FT/S)
SOUTHERN BUOY              50 47  330/ 14/ 16 1001.3          4/ 6
HARRISON CRIB              55     290/ 13/ 15   N/A
BURNHAM HARBOR             53     280/  7       N/A
CALUMET HARBOR             50     220/  5/  7 1002.6R
BURNS HARBOR               51     230/ 10/ 19 1003.4
MICHIGAN CITY              50     230/ 15/ 16   N/A
$$

ILZ025>027-034>036-040-047-049-050-058-095>099-250800-
WEST-CENTRAL ILLINOIS

CITY           SKY/WX    TMP DP  RH WIND       PRES   REMARKS
QUINCY         CLEAR     49  39  68 NW13      29.85R
GALESBURG*     CLEAR     44  40  83 NW10      29.80R
MACOMB*        CLEAR     46  40  77 NW14      29.83R
JACKSONVILLE*  CLEAR     51  41  69 MISG      29.80R
PITTSFIELD*    CLEAR     51  43  72 NW13      29.84R
$$

ILZ028>032-037-038-041>044-048-051>054-059>061-250800-
CENTRAL ILLINOIS

CITY           SKY/WX    TMP DP  RH WIND       PRES   REMARKS
PONTIAC        CLEAR     50  45  83 NW17      29.71R
BLOOMINGTON    CLEAR     51  43  74 NW17      29.74R
DECATUR        CLEAR     52  40  63 NW9       29.74R
PEORIA         CLEAR     50  43  77 NW10G18   29.77R
LACON*         CLEAR     48  43  81 NW15      29.73R
LINCOLN*       CLEAR     51  43  73 W7        29.75R
SPRINGFIELD    CLEAR     54  43  66 NW18      29.77R
TAYLORVILLE    CLOUDY    50  39  66 NW9       29.76R
$$

ILZ033-039-045-046-055>057-062-063-250800-
EAST-CENTRAL ILLINOIS

CITY           SKY/WX    TMP DP  RH WIND       PRES   REMARKS
CHAMPAIGN      PTCLDY    43  37  79 W7        29.72R
DANVILLE*      PTCLDY    46  37  72 SW7       29.67S
RANTOUL*       CLOUDY    47  41  77 W8        29.70R
MATTOON        MOCLDY    52  38  58 SW10      29.72R
PARIS*         CLOUDY    46  38  74 SW9       29.72R
$$

ILZ079-100>102-250800-
SOUTHWEST ILLINOIS

CITY           SKY/WX    TMP DP  RH WIND       PRES   REMARKS
ALTON          MOCLDY    57  43  59 NW15G21   29.78R
BELLEVILLE     CLOUDY    53  37  54 SW3       29.75R
CAHOKIA*       CLOUDY    56  36  47 W5        29.77R
SPARTA*        CLOUDY    56  37  47 SW8       29.77S
$$

ILZ064>066-069>071-074>076-080>082-084>086-088>090-092>094-250800-
SOUTH-CENTRAL ILLINOIS

CITY           SKY/WX    TMP DP  RH WIND       PRES   REMARKS
CARBONDALE     MOCLDY    55  37  50 SW10      29.78S
CAIRO*         CLOUDY    52  36  54 S10       29.83F
EFFINGHAM*     CLOUDY    52  39  61 SW7       29.76R
MARION         CLOUDY    56  36  46 SW9       29.80R
MT. VERNON     CLOUDY    51  38  60 SW6       29.77R
CENTRALIA*     CLOUDY    54  40  59 W8        29.76R
SALEM*         CLOUDY    54  37  52 SW6       29.76R
METROPOLIS*    CLOUDY    52  35  51 S9        29.84S
$$

ILZ067-068-072-073-078-083-087-091-250800-
SOUTHEAST ILLINOIS

CITY           SKY/WX    TMP DP  RH WIND       PRES   REMARKS
LAWRENCEVILLE  PTCLDY    48  35  60 SW6       29.76R
FLORA*         PTCLDY    54  38  54 SW8       29.75R
FAIRFIELD*     PTCLDY    53  37  54 CALM      29.76R
HARRISBURG*    MOCLDY    54  36  51 SW9       29.80S
ROBINSON*      PTCLDY    50  36  59 W9        29.75R
CARMI*         CLOUDY    54  36  49 SW13G18   29.77R
$$

ABBREVIATIONS USED IN REMARKS
   TC - TEMPERATURE IN CELSIUS
  WCI - WIND CHILL INDEX
   HX - HEAT INDEX
  VSB - VISIBILITY
$$





USA.gov is the U.S. government's official web portal to all federal, state and local government web resources and services.